Regional Weather Roundup
Issued by NWS Charleston, SC

Current Version | Previous Version | Text Only | Print | Product List | Glossary Off
Versions: 1 2 3 4 5 6 7 8 9 10 11 12 13 14 15 16 17 18 19 20 21 22 23 24 25 26 27 28 29 30 31 32 33 34 35 36 37 38 39 40 41 42 43 44 45 46 47 48 49 50

000
ASUS42 KCHS 191925
RWRCHS

REGIONAL WEATHER ROUNDUP
NATIONAL WEATHER SERVICE CHARLESTON SC
300 PM EDT SAT APR 19 2014

NOTE: "FAIR" INDICATES FEW OR NO CLOUDS BELOW 12,000 FEET WITH NO
SIGNIFICANT WEATHER AND/OR OBSTRUCTIONS TO VISIBILITY.

NOT ALL STATIONS ARE QUALITY CONTROLLED BY THE NATIONAL
WEATHER SERVICE. USE DATA WITH CAUTION...ESPECIALLY
DEWPOINT OBSERVATIONS.

SCZ027-030-031-034>040-042>050-192000-
...SOUTH CAROLINA...

CITY           SKY/WX    TMP DP  RH WIND       PRES   REMARKS
N CHARLESTON   DRIZZLE   62  58  86 N12       29.97F
WATERFRONT PRK   N/A     61 N/A N/A N14         N/A
FORT JOHNSON     N/A     61  61 100 N9        30.01S
MOUNT PLEASANT CLOUDY   N/A N/A N/A NE6       29.96S
JOHNS ISLAND   CLOUDY    63  63 100 N10       29.96F FOG
PINOPOLIS        N/A     59  55  88 NE13      29.91R
MONCKS CORNER  LGT RAIN  59  57  94 N7        30.00R
SUMMERVILLE    NOT AVBL
BEAUFORT MCAS  CLOUDY    62  59  90 NE13      29.96F FOG
BEAUFORT ARPT  CLOUDY    63  63 100 N10       29.95S FOG
HILTON HEAD IS CLOUDY    63  61  94 N13       29.96S FOG
GEORGETOWN     NOT AVBL
WALTERBORO     CLOUDY    57 N/A N/A NE6       29.99S
ORANGEBURG     LGT RAIN  57  53  86 NE13      30.02S FOG
BARNWELL       CLOUDY    59  55  88 NE12G18   30.01F
AIKEN          CLOUDY    55  55 100 NE18G24   30.06F
MANNING        CLOUDY    57 N/A N/A NE13G20   30.03R
KINGSTREE      NOT AVBL
COLUMBIA       LGT RAIN  58  54  86 NE9       30.05S FOG
SUMTER         LGT RAIN  56  54  93 NE23G31   30.03S
FLORENCE       CLOUDY    55  52  89 NE22G28   30.06R FOG
MYRTLE BEACH   CLOUDY    57  54  88 NE15G23   30.00R
N MYRTLE BEACH CLOUDY    59  54  83 NE17      30.00R

$$

GAZ063-065-086>088-099>101-113>116-118-119-134-136>141-150-192000-
...GEORGIA...

CITY           SKY/WX    TMP DP  RH WIND       PRES   REMARKS
SAVANNAH ARPT  CLOUDY    63  59  88 N12       29.95S FOG
HUNTER AAF     CLOUDY    63  60  93 VRB6      29.92F
FORT STEWART   DRIZZLE   61  61 100 N9        29.93F
STATESBORO     NOT AVBL
SYLVANIA       DRIZZLE   60  56  87 NE12G20   29.98F
CLAXTON        CLOUDY    59  59 100 N10       29.97S
THOMSON        CLOUDY    55  55 100 NE12G20   30.09S
AUGUSTA-BUSH   CLOUDY    59  53  80 NE15G21   30.03F
AUGUSTA-DANIEL CLOUDY    59  53  80 N14G24    30.03F
SWAINSBORO     RAIN      55  55 100 NE8       29.99F
VIDALIA        CLOUDY    57  55  94 N10       29.98R FOG
ALMA           CLOUDY    60  55  83 VRB5      29.95R
WAYCROSS       NOT AVBL
JESUP          CLOUDY    59  59 100 NE10G16   29.93F
BRUNSWICK      CLOUDY    63  63 100 NE9       29.92F
SAINT SIMONS   LGT RAIN  63  62  97 N15G22    29.91S FOG

$$

SCZ027-028-034-036>038-045-046-048>050-GAZ119-141-192000-
...LAKE AND SUPPLEMENTAL COASTAL OBSERVATIONS...

STATION/POSITION TIME  TEMP    WIND        PRES    WAVE   SWELL
                       AIR SEA DIR/SP/G            HT/PER HT/PER/DIR
                 (UTC) (F)     (DEG/KT/KT) (MB)    (FT/S) (FT/S/D)
UPR LAKE MARION  NOT AVBL
WINYAH BAY       1900   60      10/ 10     1015.0S
LAKE MURRAY      1900   55      30/  5/ 11 1017.3F
ACE BASIN NERRS  1900   62      20/  4     1015.0R
FORT PULASKI     1900   62 59   10/ 10/ 13 1014.0F
SAPELO ISLAND    1900   62      30/ 13     1013.0S

$$

ANZ835-935-AMZ111-154-330-350-352-354-374-450-454-472-192000-
...C-MAN AND BUOY OBSERVATIONS...

STATION/POSITION TIME  TEMP    WIND        PRES    WAVE   SWELL
                       AIR SEA DIR/SP/G            HT/PER HT/PER/DIR
                 (UTC) (F)     (DEG/KT/KT) (MB)    (FT/S) (FT/S/D)
FOLLY BEACH CMAN 1900   61      10/ 10/ 13 1015.0S
BUOY 41004       NOT AVBL
BUOY 41008       1900   63 64   40/ 17/ 19 1012.1F   5/ 7   2/ 90/ 8
5E ST. MARYS GA  1900      67                N/A     4/10   2/ 90/13
FRYING PAN BUOY  1900   64 67   40/ 27/ 35 1012.5F   8/ 6
BUOY 41025       NOT AVBL
CAPE LOOKOUT NC  1900   58      30/ 27/ 30 1017.8R
BUOY 41002       NOT AVBL
BUOY 41010       1900   76 76  200/  8/ 10 1012.9F   7/ 6   7/210/ 6
BUOY 41012       NOT AVBL
ST AUGUSTINE FL  1900   68     120/  8/  9 1011.8F
CAPERS NEARSHORE NOT AVBL
FRIPP NEARSHORE  1800   61      50/ 12/ 16   N/A


$$



USA.gov is the U.S. government's official web portal to all federal, state and local government web resources and services.